K4XP Weather Reports


time (UTC)temp
C
wind
direction
speed
KPH
gust
KPH
rain 1hr
cm
rain 24hr
cm
rain mn
cm
humidity
%
barometer
mb
20260505230530 25 192 0.0 1.6 0.00 0.00 0.00 42 1012.9
20260505230027 25 210 0.0 1.6 0.00 0.00 0.00 42 1013.0
20260505225522 25 175 0.0 1.6 0.00 0.00 0.00 42 1013.0
20260505225018 25 188 0.0 1.6 0.00 0.00 0.00 42 1013.1
20260505224518 25 183 0.0 1.6 0.00 0.00 0.00 41 1013.1
20260505224014 25 178 0.0 1.6 0.00 0.00 0.00 41 1013.1
20260505223530 25 199 0.0 1.6 0.00 0.00 0.00 40 1013.1
20260505223027 25 205 0.0 1.6 0.00 0.00 0.00 42 1013.2
20260505222522 25 182 0.0 1.6 0.00 0.00 0.00 41 1013.2
20260505222018 25 211 0.0 1.6 0.00 0.00 0.00 40 1013.2
20260505221514 25 209 0.0 1.6 0.00 0.00 0.00 40 1013.3
20260505221014 25 168 0.0 1.6 0.00 0.00 0.00 39 1013.1
20260505220511 25 182 0.0 1.6 0.00 0.00 0.00 40 1013.2
20260505220028 25 259 0.0 12.9 0.00 0.00 0.00 40 1013.1
20260505215524 25 246 0.0 12.9 0.00 0.00 0.00 39 1013.0
20260505215021 25 192 0.0 4.8 0.00 0.00 0.00 38 1013.1
20260505214517 25 173 0.0 4.8 0.00 0.00 0.00 38 1013.2
20260505214013 25 207 0.0 1.6 0.00 0.00 0.00 39 1013.2
20260505213513 25 190 0.0 1.6 0.00 0.00 0.00 39 1013.2
20260505213029 25 188 0.0 1.6 0.00 0.00 0.00 38 1013.2
20260505212524 25 255 0.0 1.6 0.00 0.00 0.00 40 1013.2
20260505212021 25 165 0.0 1.6 0.00 0.00 0.00 40 1013.3
20260505211517 25 163 0.0 1.6 0.00 0.00 0.00 40 1013.5
20260505211013 25 180 0.0 3.2 0.00 0.00 0.00 39 1013.5
20260505210529 25 188 0.0 1.6 0.00 0.00 0.00 39 1013.5
20260505210030 26 229 0.0 1.6 0.00 0.00 0.00 38 1013.6
20260505205525 25 220 0.0 14.5 0.00 0.00 0.00 38 1013.6
20260505205021 26 224 0.0 14.5 0.00 0.00 0.00 39 1013.7
20260505204517 25 169 0.0 16.1 0.00 0.00 0.00 39 1013.6
20260505204013 25 167 0.0 24.1 0.00 0.00 0.00 39 1013.6
20260505203529 25 168 6.4 25.7 0.00 0.00 0.00 39 1013.6
20260505203026 25 173 0.0 1.6 0.00 0.00 0.00 38 1013.8
20260505202526 25 189 0.0 1.6 0.00 0.00 0.00 38 1013.8
20260505202022 25 171 0.0 9.7 0.00 0.00 0.00 37 1013.8
20260505201518 25 187 0.0 19.3 0.00 0.00 0.00 38 1013.9
20260505201014 25 161 8.0 19.3 0.00 0.00 0.00 37 1014.1
20260505200530 25 203 0.0 1.6 0.00 0.00 0.00 37 1014.2
20260505200026 25 172 0.0 1.6 0.00 0.00 0.00 36 1014.3
20260505195523 25 172 0.0 0.0 0.00 0.00 0.00 37 1014.3
20260505195022 25 202 0.0 1.6 0.00 0.00 0.00 38 1014.4
20260505194518 25 182 0.0 0.0 0.00 0.00 0.00 37 1014.5
20260505194015 25 172 0.0 0.0 0.00 0.00 0.00 37 1014.6
20260505193512 25 185 0.0 1.6 0.00 0.00 0.00 37 1014.6
20260505193029 25 192 0.0 1.6 0.00 0.00 0.00 38 1014.6
20260505192524 25 225 0.0 1.6 0.00 0.00 0.00 38 1014.7
20260505192020 25 182 0.0 1.6 0.00 0.00 0.00 37 1014.8
20260505191520 25 223 0.0 0.0 0.00 0.00 0.00 39 1014.8
20260505191017 25 178 0.0 16.1 0.00 0.00 0.00 39 1014.9
20260505190513 24 146 3.2 16.1 0.00 0.00 0.00 38 1014.9
20260505190030 24 207 0.0 1.6 0.00 0.00 0.00 40 1014.9
20260505185526 24 271 0.0 0.0 0.00 0.00 0.00 39 1015.0
20260505185021 25 201 0.0 1.6 0.00 0.00 0.00 38 1014.9
20260505184517 25 201 0.0 0.0 0.00 0.00 0.00 37 1015.0
20260505184018 25 153 0.0 1.6 0.00 0.00 0.00 38 1015.0
20260505183514 24 163 0.0 11.3 0.00 0.00 0.00 39 1015.1
20260505183011 25 212 0.0 22.5 0.00 0.00 0.00 39 1015.2
20260505182527 25 178 1.6 16.1 0.00 0.00 0.00 41 1015.3
20260505182023 24 196 0.0 1.6 0.00 0.00 0.00 40 1015.5
20260505181520 24 168 0.0 1.6 0.00 0.00 0.00 40 1015.7
20260505181026 24 240 0.0 1.6 0.00 0.00 0.00 40 1015.9
20260505180522 24 191 0.0 9.7 0.00 0.00 0.00 41 1015.9
20260505180024 24 218 0.0 16.1 0.00 0.00 0.00 39 1015.9
20260505175519 24 211 4.8 16.1 0.00 0.00 0.00 40 1016.0
20260505175015 24 161 0.0 3.2 0.00 0.00 0.00 41 1016.0
20260505174511 23 201 0.0 1.6 0.00 0.00 0.00 41 1016.1
20260505174027 23 165 0.0 1.6 0.00 0.00 0.00 43 1016.1
20260505173523 23 213 0.0 1.6 0.00 0.00 0.00 43 1016.1
20260505173019 23 262 0.0 1.6 0.00 0.00 0.00 41 1016.2
20260505172519 23 173 0.0 1.6 0.00 0.00 0.00 41 1016.1
20260505172016 23 193 0.0 1.6 0.00 0.00 0.00 43 1016.0
20260505171512 23 198 0.0 1.6 0.00 0.00 0.00 42 1016.0
20260505171028 23 181 0.0 0.0 0.00 0.00 0.00 44 1016.0
20260505170523 23 174 0.0 0.0 0.00 0.00 0.00 42 1016.0
20260505170022 23 231 0.0 0.0 0.00 0.00 0.00 44 1016.1
20260505165519 23 196 0.0 0.0 0.00 0.00 0.00 43 1016.1
20260505165019 23 153 0.0 1.6 0.00 0.00 0.00 45 1016.1
20260505164515 23 219 0.0 22.5 0.00 0.00 0.00 44 1016.2
20260505164011 23 189 1.6 22.5 0.00 0.00 0.00 45 1016.1
20260505163527 23 229 9.7 22.5 0.00 0.00 0.00 46 1016.0
20260505163024 23 184 0.0 1.6 0.00 0.00 0.00 49 1016.1
20260505162519 22 221 0.0 1.6 0.00 0.00 0.00 48 1016.2
20260505162016 23 235 0.0 0.0 0.00 0.00 0.00 49 1016.3
20260505161517 22 230 0.0 1.6 0.00 0.00 0.00 54 1016.5
20260505161013 22 184 0.0 1.6 0.00 0.00 0.00 53 1016.4
20260505160528 22 207 0.0 1.6 0.00 0.00 0.00 54 1016.4
20260505153027 21 191 0.0 0.0 0.00 0.00 0.00 57 1017.0
20260505152524 21 165 0.0 0.0 0.00 0.00 0.00 58 1016.9
20260505152021 21 235 0.0 0.0 0.00 0.00 0.00 57 1016.9
20260505151517 21 182 0.0 0.0 0.00 0.00 0.00 58 1017.0
20260505151013 20 204 0.0 0.0 0.00 0.00 0.00 59 1017.0
20260505150513 20 175 0.0 0.0 0.00 0.00 0.00 59 1017.0
20260505140530 18 157 0.0 1.6 0.00 0.00 0.00 72 1016.6
20260505125012 15 171 0.0 0.0 0.00 0.00 0.00 80 1016.4
20260505124526 15 185 0.0 0.0 0.00 0.00 0.00 80 1016.4
20260505124022 15 174 0.0 0.0 0.00 0.00 0.00 81 1016.4
20260505123518 14 169 0.0 0.0 0.00 0.00 0.00 81 1016.3
20260505123012 14 220 0.0 0.0 0.00 0.00 0.00 81 1016.3
20260505122528 13 177 0.0 0.0 0.00 0.00 0.00 81 1016.3
20260505122023 13 178 0.0 0.0 0.00 0.00 0.00 82 1016.3
20260505121517 13 173 0.0 0.0 0.00 0.00 0.00 83 1016.2
20260505121012 13 202 0.0 0.0 0.00 0.00 0.00 83 1016.2
20260505120512 13 202 0.0 0.0 0.00 0.00 0.00 83 1016.1
20260505115519 12 194 0.0 0.0 0.00 0.00 0.00 84 1016.0
20260505115014 12 194 0.0 0.0 0.00 0.00 0.00 84 1015.9
20260505114529 12 198 0.0 0.0 0.00 0.00 0.00 85 1016.0
20260505114025 12 196 0.0 0.0 0.00 0.00 0.00 85 1016.0
20260505113515 11 219 0.0 0.0 0.00 0.00 0.00 85 1016.0
20260505113012 11 195 0.0 0.0 0.00 0.00 0.00 86 1016.0
20260505112524 11 198 0.0 0.0 0.00 0.00 0.00 86 1016.0
20260505112014 11 199 0.0 0.0 0.00 0.00 0.00 86 1016.0
20260505111528 11 198 0.0 0.0 0.00 0.00 0.00 86 1015.9
20260505111019 11 198 0.0 0.0 0.00 0.00 0.00 85 1015.9
20260505110511 11 198 0.0 0.0 0.00 0.00 0.00 85 1015.8
20260505102016 11 194 0.0 0.0 0.00 0.00 0.00 83 1015.7
20260505101530 11 188 0.0 0.0 0.00 0.00 0.00 83 1015.6
20260505101023 11 224 0.0 0.0 0.00 0.00 0.00 82 1015.6
20260505100513 11 224 0.0 0.0 0.00 0.00 0.00 82 1015.6
20260505100030 11 224 0.0 0.0 0.00 0.00 0.00 82 1015.5
20260505095523 11 224 0.0 0.0 0.00 0.00 0.00 81 1015.5
20260505095016 11 224 0.0 0.0 0.00 0.00 0.00 81 1015.6
20260505094511 12 224 0.0 0.0 0.00 0.00 0.00 81 1015.6
20260505094023 12 224 0.0 0.0 0.00 0.00 0.00 81 1015.6
20260505093530 12 224 0.0 0.0 0.00 0.00 0.00 81 1015.5
20260505093030 12 198 0.0 0.0 0.00 0.00 0.00 81 1015.5
20260505092525 12 223 0.0 0.0 0.00 0.00 0.00 81 1015.6
20260505092020 12 209 0.0 0.0 0.00 0.00 0.00 80 1015.4
20260505091514 12 225 0.0 0.0 0.00 0.00 0.00 80 1015.3
20260505091027 12 215 0.0 0.0 0.00 0.00 0.00 80 1015.3
20260505090521 12 220 0.0 0.0 0.00 0.00 0.00 80 1015.2
20260505090017 12 198 0.0 0.0 0.00 0.00 0.00 80 1015.2
20260505085513 12 182 0.0 0.0 0.00 0.00 0.00 80 1015.2
20260505085028 12 198 0.0 0.0 0.00 0.00 0.00 80 1015.3
20260505084521 12 186 0.0 0.0 0.00 0.00 0.00 80 1015.2
20260505084014 12 186 0.0 0.0 0.00 0.00 0.00 80 1015.1
20260505083528 12 189 0.0 0.0 0.00 0.00 0.00 79 1015.0
20260505083021 12 182 0.0 0.0 0.00 0.00 0.00 78 1015.1
20260505082517 12 182 0.0 0.0 0.00 0.00 0.00 78 1015.1
20260505082027 12 200 0.0 0.0 0.00 0.00 0.00 77 1015.1
20260505081527 12 184 0.0 0.0 0.00 0.00 0.00 77 1015.1
20260505081022 12 184 0.0 0.0 0.00 0.00 0.00 77 1015.0
20260505080516 12 184 0.0 0.0 0.00 0.00 0.00 77 1015.0
20260505080025 12 207 0.0 0.0 0.00 0.00 0.00 76 1014.9
20260505075519 12 210 0.0 0.0 0.00 0.00 0.00 76 1014.8
20260505075015 12 200 0.0 0.0 0.00 0.00 0.00 76 1014.8
20260505074529 12 200 0.0 0.0 0.00 0.00 0.00 76 1014.9
20260505074024 12 221 0.0 0.0 0.00 0.00 0.00 75 1014.8
20260505073519 12 237 0.0 0.0 0.00 0.00 0.00 75 1014.8
20260505073016 12 240 0.0 0.0 0.00 0.00 0.00 75 1015.0
20260505072528 12 246 0.0 0.0 0.00 0.00 0.00 74 1014.9
20260505072024 13 214 0.0 0.0 0.00 0.00 0.00 73 1014.9
20260505071519 13 217 0.0 0.0 0.00 0.00 0.00 73 1014.8
20260505071015 13 217 0.0 0.0 0.00 0.00 0.00 72 1014.8
20260505070511 13 217 0.0 0.0 0.00 0.00 0.00 71 1014.8
20260505070012 13 217 0.0 0.0 0.00 0.00 0.00 71 1014.8
20260505065527 13 210 0.0 0.0 0.00 0.00 0.00 70 1014.6
20260505065023 13 190 0.0 0.0 0.00 0.00 0.00 70 1014.7
20260505064519 13 187 0.0 0.0 0.00 0.00 0.00 69 1014.7
20260505064013 14 209 0.0 0.0 0.00 0.00 0.00 69 1014.7
20260505063526 14 207 0.0 0.0 0.00 0.00 0.00 68 1014.7
20260505063021 14 190 0.0 0.0 0.00 0.00 0.00 68 1014.7
20260505062520 14 182 0.0 0.0 0.00 0.00 0.00 67 1014.7
20260505062016 14 169 0.0 0.0 0.00 0.00 0.00 67 1014.7
20260505061513 14 193 0.0 0.0 0.00 0.00 0.00 67 1014.8
20260505061028 14 175 0.0 0.0 0.00 0.00 0.00 67 1014.7
20260505060522 14 202 0.0 0.0 0.00 0.00 0.00 67 1014.8
20260505060019 14 202 0.0 0.0 0.00 0.00 0.00 67 1014.7
20260505055515 14 214 0.0 0.0 0.00 0.00 0.00 67 1014.7
20260505055014 14 186 0.0 0.0 0.00 0.00 0.00 67 1014.8
20260505054510 14 181 0.0 0.0 0.00 0.00 0.00 67 1014.8
20260505054027 14 196 0.0 0.0 0.00 0.00 0.00 67 1014.9
20260505053522 14 190 0.0 0.0 0.00 0.00 0.00 66 1014.8
20260505053018 14 211 0.0 0.0 0.00 0.00 0.00 66 1014.9
20260505052513 15 211 0.0 0.0 0.00 0.00 0.00 65 1015.0
20260505052028 15 211 0.0 0.0 0.00 0.00 0.00 65 1015.0
20260505051523 15 211 0.0 0.0 0.00 0.00 0.00 64 1014.9
20260505051023 15 211 0.0 0.0 0.00 0.00 0.00 63 1015.0
20260505050517 15 211 0.0 0.0 0.00 0.00 0.00 63 1015.0
20260505041510 16 188 0.0 0.0 0.00 0.00 0.00 58 1015.1
20260505041026 16 188 0.0 0.0 0.00 0.00 0.00 58 1015.1
20260505040522 16 191 0.0 0.0 0.00 0.00 0.00 57 1015.2
20260505040022 17 190 0.0 0.0 0.00 0.00 0.00 57 1015.2
20260505035517 17 201 0.0 1.6 0.00 0.00 0.00 57 1015.1
20260505035013 17 183 0.0 1.6 0.00 0.00 0.00 56 1015.1
20260505034529 17 196 0.0 1.6 0.00 0.00 0.00 56 1015.1
20260505034024 17 193 0.0 0.0 0.00 0.00 0.00 55 1015.2
20260505033516 17 180 0.0 1.6 0.00 0.00 0.00 55 1015.2
20260505033013 17 198 0.0 1.6 0.00 0.00 0.00 54 1015.2
20260505032513 17 180 0.0 0.0 0.00 0.00 0.00 54 1015.2
20260505032029 18 189 0.0 0.0 0.00 0.00 0.00 53 1015.2
20260505031525 18 186 0.0 0.0 0.00 0.00 0.00 52 1015.1
20260505031021 18 177 0.0 1.6 0.00 0.00 0.00 52 1015.1
20260505030517 18 174 0.0 1.6 0.00 0.00 0.00 51 1015.2
20260505030011 18 185 0.0 1.6 0.00 0.00 0.00 50 1015.2
20260505025527 18 159 0.0 0.0 0.00 0.00 0.00 50 1015.2
20260505025023 18 169 0.0 0.0 0.00 0.00 0.00 50 1015.1
20260505024523 18 186 0.0 1.6 0.00 0.00 0.00 49 1015.1
20260505024017 19 174 0.0 0.0 0.00 0.00 0.00 49 1015.0
20260505023512 19 183 0.0 0.0 0.00 0.00 0.00 49 1015.0
20260505023024 19 182 0.0 0.0 0.00 0.00 0.00 49 1014.9
20260505022519 19 194 0.0 0.0 0.00 0.00 0.00 49 1014.9
20260505022016 19 191 0.0 0.0 0.00 0.00 0.00 49 1014.9
20260505021529 18 166 0.0 0.0 0.00 0.00 0.00 51 1014.9
20260505021025 18 182 0.0 0.0 0.00 0.00 0.00 52 1014.8
20260505020525 18 192 0.0 0.0 0.00 0.00 0.00 53 1014.8
20260505020020 18 192 0.0 0.0 0.00 0.00 0.00 53 1014.8
20260505015516 18 192 0.0 0.0 0.00 0.00 0.00 53 1014.8
20260505015011 18 195 0.0 0.0 0.00 0.00 0.00 52 1014.7
20260505014527 18 188 0.0 0.0 0.00 0.00 0.00 51 1014.7
20260505014021 18 184 0.0 0.0 0.00 0.00 0.00 51 1014.7
20260505013517 18 184 0.0 0.0 0.00 0.00 0.00 51 1014.7
20260505013016 18 185 0.0 0.0 0.00 0.00 0.00 49 1014.6
20260505012512 18 211 0.0 0.0 0.00 0.00 0.00 49 1014.5
20260505012027 19 182 0.0 0.0 0.00 0.00 0.00 50 1014.4
20260505011523 19 182 0.0 0.0 0.00 0.00 0.00 49 1014.4
20260505011019 20 171 0.0 0.0 0.00 0.00 0.00 47 1014.5
20260505010516 20 171 0.0 0.0 0.00 0.00 0.00 47 1014.4
20260505010013 20 171 0.0 0.0 0.00 0.00 0.00 46 1014.4
20260505005512 20 171 0.0 0.0 0.00 0.00 0.00 45 1014.3
20260505005027 20 171 0.0 0.0 0.00 0.00 0.00 45 1014.3
20260505004522 20 172 0.0 0.0 0.00 0.00 0.00 44 1014.3
20260505004018 21 208 0.0 0.0 0.00 0.00 0.00 44 1014.2
20260505003513 21 197 0.0 0.0 0.00 0.00 0.00 43 1014.2
20260505003028 21 198 0.0 0.0 0.00 0.00 0.00 42 1014.1
20260505002524 21 186 0.0 0.0 0.00 0.00 0.00 42 1014.0
20260505002023 21 185 0.0 0.0 0.00 0.00 0.00 42 1013.9
20260505001520 21 183 0.0 0.0 0.00 0.00 0.00 41 1014.0
20260505001017 22 199 0.0 0.0 0.00 0.00 0.00 41 1014.0
20260505000513 22 194 0.0 1.6 0.00 0.00 0.00 40 1014.0
20260505000028 22 185 0.0 1.6 0.00 0.00 0.00 40 1014.0
20260504235525 22 198 0.0 0.0 0.00 0.00 0.00 39 1013.8
20260504235021 22 161 0.0 0.0 0.00 0.00 0.00 39 1013.8
20260504234522 22 172 0.0 0.0 0.00 0.00 0.00 39 1013.8
20260504234018 23 198 0.0 0.0 0.00 0.00 0.00 39 1013.7
20260504233513 23 196 0.0 1.6 0.00 0.00 0.00 39 1013.6
20260504233011 23 175 0.0 1.6 0.00 0.00 0.00 38 1013.5
20260504232527 23 183 0.0 0.0 0.00 0.00 0.00 38 1013.5
20260504232022 23 165 0.0 1.6 0.00 0.00 0.00 38 1013.5
20260504231518 23 153 0.0 1.6 0.00 0.00 0.00 37 1013.4
20260504231018 23 157 0.0 1.6 0.00 0.00 0.00 36 1013.5